Location: Unspecified
(0.0000°N, 0.0000°E)
Time: 05:57:05
(UTC+00:00)

ISS - Pass Details

Date: 11 August 2022
Orbit: 412 x 420 km, 51.6° (Epoch: 13 August)

Event Time Altitude Azimuth Distance (km) Brightness Sun altitude
Rises 18:56:19 0° 315° (NW) 2,331 1.2 -12.3°
Reaches altitude 10° 18:58:27 10° 308° (NW) 1,474 0.2 -12.8°
Maximum altitude 19:01:37 44° 235° (SW) 581 -2.8 -13.6°
Enters shadow 19:04:29 12° 163° (SSE) 1,357 -1.5 -14.3°
